Location: Barrialote
(9.9333°N, 67.3500°W)
Time: 15:17:18
(UTC+00:00)

USA 229 DEB - Pass Details

Date: 18 April 2024
Orbit: 892 x 1319 km, 63.4° (Epoch: 18 May)

Event Time Altitude Azimuth Distance (km) Brightness Sun altitude
Rises 23:15:03 0° 187° (S) 3,512 6.4 -9.3°
Reaches altitude 10° 23:17:43 10° 179° (S) 2,557 5.6 -9.9°
Maximum altitude 23:23:07 38° 112° (ESE) 1,327 3.7 -11.2°
Drops below altitude 10° 23:28:36 10° 45° (NE) 2,606 5.4 -12.5°
Sets 23:31:20 0° 37° (NE) 3,588 6.2 -13.2°
